RH
20 19 18 17 17 16 16 16 16 18 17 14 15 17 17 14 15 18 22 22 21 13 12 21 22 26 27 29 27 30 28 25 27 28 49 54 66 63 60 57 58 55 54 69 61
22 20 19 18 18 16 17 17 17 18 15 15 18 18 16 13 16 22 29 21 19 15 18 25 29 26 29 34 29 29 28 31 47 63 59 58 68 55 60 64 69 66 78 82 54
24 22 20 20 19 18 18 18 18 19 15 18 20 18 15 16 31 42 28 19 20 23 27 31 33 35 30 33 31 29 28 37 51 57 56 60 71 64 57 69 78 91 72 63 59
26 24 22 21 21 20 20 18 18 18 16 21 20 19 14 16 43 36 24 22 21 25 34 37 37 36 32 34 32 33 31 40 44 47 52 56 53 50 46 46 56 64 65 53 66
27 26 25 23 23 22 21 19 19 17 17 20 19 18 14 25 34 30 21 20 23 25 31 35 36 35 35 37 34 33 39 38 41 40 41 48 56 52 43 31 55 54 49 49 60
29 28 26 25 25 23 21 19 18 17 19 19 19 17 15 32 37 28 24 26 26 27 31 30 38 41 42 34 29 34 39 35 39 41 54 54 48 44 50 45 48 45 47 47 49
31 30 28 27 26 24 22 19 19 17 19 19 19 16 21 30 36 34 31 31 37 36 32 32 37 38 39 44 42 40 38 36 43 43 49 54 46 37 42 40 42 42 43 44 49
34 31 29 28 26 24 22 18 18 19 19 18 18 16 24 28 29 35 36 41 41 41 36 37 38 37 39 44 43 37 32 39 45 40 37 34 40 34 38 38 44 39 40 42 42
35 32 30 29 27 26 22 19 18 19 19 18 18 20 29 28 31 36 35 43 42 39 37 32 31 39 43 43 36 32 39 52 44 38 28 25 36 32 36 49 48 47 44 46 43
36 32 30 30 28 26 22 18 18 18 18 18 19 27 24 27 37 37 35 37 40 41 39 36 39 42 43 42 38 36 37 42 39 34 18 25 34 32 27 55 82 50 48 47 47
35 32 30 30 30 28 22 18 28 31 23 18 29 32 34 35 34 31 34 39 39 44 43 43 45 47 44 43 42 38 33 35 32 23 20 34 38 32 26 50 60 55 59 48 49
35 31 30 32 32 29 23 24 41 44 36 20 25 34 35 36 30 29 35 43 41 48 46 46 45 48 47 44 43 40 36 29 28 25 20 29 39 23 29 37 42 46 43 46 49
39 30 31 33 34 28 22 18 30 33 33 31 21 29 33 31 25 29 36 41 45 46 47 53 50 49 46 44 38 34 34 36 35 17 22 40 41 42 29 37 47 44 46 49 49
39 29 31 36 34 28 20 18 28 33 37 38 29 33 34 30 28 34 40 41 44 46 46 57 47 41 39 36 35 43 41 39 45 41 33 36 51 66 51 32 30 35 41 41 48
42 28 29 38 41 32 46 32 37 42 49 39 36 36 34 26 37 30 34 39 49 44 49 50 39 39 44 43 43 44 43 39 38 40 43 45 44 51 47 44 34 37 39 40 43
41 27 30 38 34 30 37 40 52 49 49 40 40 39 35 31 33 38 31 26 41 47 46 46 45 47 47 38 31 29 28 33 36 34 53 47 54 58 55 51 58 47 49 44 37
41 28 29 39 40 33 41 52 58 44 34 42 38 36 35 37 32 31 33 25 36 45 47 38 35 36 31 31 28 23 34 41 48 52 43 37 46 44 44 48 63 52 47 42 40
44 31 30 38 41 39 49 61 54 31 35 34 33 36 38 42 35 27 28 28 29 37 40 48 42 33 24 24 46 45 29 47 73 77 51 45 39 38 37 44 45 52 53 41 45
46 34 31 37 37 49 58 68 49 37 33 42 36 42 39 44 36 34 31 30 29 31 38 51 57 54 41 30 27 30 36 39 47 63 54 36 28 24 31 38 40 48 40 38 42
49 36 28 37 40 53 60 54 43 41 36 45 36 38 41 42 32 34 35 32 33 35 40 68 71 53 47 35 25 22 38 39 34 37 34 24 35 42 44 38 28 31 35 36 39
51 41 33 39 43 56 60 48 47 43 35 46 32 38 38 42 29 35 41 43 46 42 35 38 59 52 40 31 23 32 27 25 28 44 56 49 38 38 36 31 20 25 36 37 35
51 43 44 42 49 45 50 47 44 48 37 37 38 39 36 45 32 32 48 45 35 27 29 27 31 42 34 35 26 34 44 36 45 31 45 45 28 27 27 20 15 20 30 35 32
53 49 64 44 43 48 45 46 45 50 43 33 33 39 34 46 45 33 41 52 41 30 28 29 27 37 41 47 31 24 22 31 44 42 41 52 30 24 22 19 18 18 23 33 36
58 61 76 57 43 48 46 43 48 49 44 37 35 40 34 33 37 36 36 38 34 29 25 28 31 30 41 38 52 52 31 28 31 45 36 30 23 29 26 25 23 22 21 27 34
62 51 60 54 52 48 51 50 47 48 43 47 36 30 33 31 39 40 43 45 36 28 26 26 28 29 32 42 48 51 43 37 32 30 31 26 29 26 25 27 28 25 26 23 26
54 50 53 54 53 51 51 50 46 45 42 47 49 37 34 35 34 44 43 49 40 37 33 33 37 38 36 33 38 39 40 34 30 32 31 25 29 27 27 25 25 24 25 28 26
55 55 63 60 57 58 51 53 53 45 45 45 39 42 40 48 46 49 47 62 52 52 45 48 50 48 43 37 36 39 33 31 29 29 26 28 24 25 29 30 28 27 28 30 28